Regional Weather Roundup
Issued by NWS

Home | Current Version | Previous Version | Text Only | Print | Product List | Glossary Off
Versions: 1 2 3 4 5 6 7 8 9 10 11 12 13 14 15 16 17 18 19 20 21 22 23 24 25 26 27 28 29 30 31 32 33 34 35 36 37 38 39 40 41 42 43 44 45 46 47 48 49 50

000
ASUS43 KLOT 221106
RWRIL

ILLINOIS REGIONAL WEATHER ROUNDUP
NATIONAL WEATHER SERVICE CHICAGO/ROMEOVILLE IL
600 AM CDT FRI AUG 22 2014

NOTE: "FAIR" INDICATES FEW OR NO CLOUDS BELOW 12,000 FEET WITH NO
SIGNIFICANT WEATHER AND/OR OBSTRUCTIONS TO VISIBILITY.

* THESE STATIONS ARE NOT UNDER NWS QUALITY CONTROL. THEY ALSO MAY NOT
  REPORT WEATHER SUCH AS PRECIPITATION OR FOG.

ILZ001-002-007-009-015-016-024-221200-
NORTHWEST ILLINOIS

CITY           SKY/WX    TMP DP  RH WIND       PRES   REMARKS
MOLINE         CLOUDY    76  72  87 CALM      29.88S
STERLING*      CLOUDY    72  70  94 SE5       29.90R
SAVANNA*       CLOUDY    73  71  93 CALM      29.88S FOG
$$

ILZ003-004-008-010-011-017-018-221200-
NORTH CENTRAL ILLINOIS

CITY           SKY/WX    TMP DP  RH WIND       PRES   REMARKS
ROCKFORD       CLOUDY    73  71  93 S7        29.93R FOG
FREEPORT*      CLOUDY    73  72  97 CALM      29.94R FOG
ROCHELLE*      CLOUDY    71  69  94 SE6       29.93R
DE KALB*       CLOUDY    71  69  96 S7        29.94R
PERU*          CLOUDY    74  72  94 SW9       29.95R
$$

ILZ005-006-012>014-019>023-221200-
NORTHEAST ILLINOIS

CITY           SKY/WX    TMP DP  RH WIND       PRES   REMARKS
CHICAGO-OHARE  MOCLDY    73  69  87 S5        29.91S
CHICAGO-MIDWAY MOCLDY    74  73  97 SW7       29.91F FOG
AURORA         CLOUDY    73  70  90 S7        29.94R
LANSING*       LGT RAIN  71  71  98 CALM      29.93S
JOLIET*        MOCLDY    72  71  95 CALM      29.94R
WAUKEGAN       FOG       69  68  96 E3        29.90S VSB 1/4
DUPAGE AIRPORT PTCLDY    73  71  93 S8        29.92R
KANKAKEE*      CLOUDY    72  71  98 CALM      29.95S
WHEELING       CLOUDY    74  71  91 SE3       29.92R
MORRIS*        MOCLDY    73  73 100 CALM      29.94R
ROMEOVILLE*    MOCLDY    72  72 100 SW7       29.93R
NORTHERLY ISL    N/A     73  70  90 SW2         N/A
$$

LMZ740>746-221200-
SOUTHERN LAKE MICHIGAN

STATION/POSITION SKY/WX   TEMP    WIND        PRES    VSBY  WAVE
                          AIR SEA DIR/SP/G                  HT/PER
                          (F)     (DEG/KT/KT) (MB)    (MI)  (FT/S)
SOUTHERN BUOY              69 68  170/  2/  2 1013.1S         0
WAUKEGAN HARBOR            70        CALM       N/A
HARRISON CRIB              73     200/  8/  9   N/A
BURNHAM HARBOR             73     240/  2/  9   N/A
CALUMET HARBOR             72     200/  7/  9 1011.9R
MICHIGAN CITY              73     220/  7/  9   N/A
MICHIGAN CITY 6N           72 70  250/  2/  4   N/A           1
ST. JOSEPH                 71 71  180/  2/  4   N/A           1
$$

ILZ025>027-034>036-040-047-049-050-058-095>099-221200-
WEST-CENTRAL ILLINOIS

CITY           SKY/WX    TMP DP  RH WIND       PRES   REMARKS
QUINCY         PTCLDY    77  71  82 SW7       29.94R
GALESBURG*     TSTM      74  73  95 W6        29.92R
MACOMB*        CLOUDY    76  74  92 NW3       29.96R THUNDER
JACKSONVILLE*  CLEAR     77  72  86 SW5       29.96R
PITTSFIELD*    PTCLDY    79  70  74 SW7       29.96R HX  81
$$

ILZ028>032-037-038-041>044-048-051>054-059>061-221200-
CENTRAL ILLINOIS

CITY           SKY/WX    TMP DP  RH WIND       PRES   REMARKS
PONTIAC          N/A    N/A N/A N/A W8        29.97R
DECATUR        PTCLDY    79  72  79 W10       29.95R HX  82
PEORIA         TSTM      76  69  79 SW7       29.92F
LACON*         TSTM      72  67  85 S8        29.93F
LINCOLN*       MOCLDY    79  73  80 NW5       29.94R HX  82
SPRINGFIELD    PTCLDY    77  72  84 SW6       29.95R
TAYLORVILLE    CLEAR     75  70  83 SW6       29.95R
$$

ILZ033-039-045-046-055>057-062-063-221200-
EAST-CENTRAL ILLINOIS

CITY           SKY/WX    TMP DP  RH WIND       PRES   REMARKS
CHAMPAIGN      CLOUDY    76  73  91 NW7       29.96R
DANVILLE*      RAIN      76  73  92 N5        29.94S
RANTOUL*       CLOUDY    77  68  72 N7        29.98R THUNDER
MATTOON        MOCLDY    76  72  87 SW9       29.94R
PARIS*         CLOUDY    76  73  92 SW5       29.95R THUNDER
$$

ILZ079-100>102-221200-
SOUTHWEST ILLINOIS

CITY           SKY/WX    TMP DP  RH WIND       PRES   REMARKS
ALTON          CLEAR     75  73  93 SW5       29.96S
BELLEVILLE     CLEAR     72  72 100 VRB1      29.95S
CAHOKIA*       CLEAR     76  70  82 CALM      29.96R
SPARTA*        CLEAR     75  71  87 SW3       29.99R
$$

ILZ064>066-069>071-074>076-080>082-084>086-088>090-092>094-221200-
SOUTH-CENTRAL ILLINOIS

CITY           SKY/WX    TMP DP  RH WIND       PRES   REMARKS
CARBONDALE     CLEAR     75  71  87 SW7       29.99R
CAIRO*         CLEAR     77  73  85 SW6       30.02R
MARION         CLEAR     73  72  94 S5        30.01R
MT. VERNON     CLEAR     73  68  83 CALM      29.99R
CENTRALIA*     CLEAR     72  69  89 CALM      29.98S
SALEM*         CLEAR     77  73  88 SW5       29.98R
METROPOLIS*    CLEAR     76  72  87 SW5       30.02R
$$

ILZ067-068-072-073-078-083-087-091-221200-
SOUTHEAST ILLINOIS

CITY           SKY/WX    TMP DP  RH WIND       PRES   REMARKS
LAWRENCEVILLE  PTCLDY    77  73  87 SW8       29.97R
FLORA*         PTCLDY    74  72  93 SW5       29.98R
FAIRFIELD*     CLEAR     75  73  94 SW3       29.98R
HARRISBURG*    CLEAR     73  73 100 SW3       30.01R
ROBINSON*      MOCLDY    78  74  88 SW13G18   29.96R HX  80
CARMI*         CLEAR     75  73  94 S5        29.98S
$$

ABBREVIATIONS USED IN REMARKS
   TC - TEMPERATURE IN CELSIUS
  WCI - WIND CHILL INDEX
   HX - HEAT INDEX
  VSB - VISIBILITY
$$




USA.gov is the U.S. government's official web portal to all federal, state and local government web resources and services.